Regional Weather Roundup
Issued by NWS

Home | Current Version | Previous Version | Text Only | Print | Product List | Glossary Off
Versions: 1 2 3 4 5 6 7 8 9 10 11 12 13 14 15 16 17 18 19 20 21 22 23 24 25 26 27 28 29 30 31 32 33 34 35 36 37 38 39 40 41 42 43 44 45 46 47 48 49 50

755
ASUS45 KCYS 100110
RWRWY

WYOMING REGIONAL WEATHER ROUNDUP
NATIONAL WEATHER SERVICE CHEYENNE WY
600 PM MST TUE FEB 09 2016

NOTE:  "FAIR" INDICATES FEW OR NO CLOUDS BELOW 12,000 FEET
WITH NO SIGNIFICANT WEATHER AND/OR OBSTRUCTIONS TO VISIBILITY.

WYZ001-100200-
YELLOWSTONE NATIONAL PARK

CITY           SKY/WX    TMP DP  RH WIND       PRES   REMARKS
LK YELLOWSTONE   N/A     25  19  78 CALM      30.45F
W YELLOWSTONE  NOT AVBL

$$
WYZ002>013-054>058-071-098>099-100200-
NORTHERN WYOMING

CITY           SKY/WX    TMP DP  RH WIND       PRES   REMARKS
JACKSON        CLEAR     23  19  86 CALM      30.46F
CODY           FAIR      45  25  45 CALM      30.24F
GREYBULL       FAIR      39  27  62 SW5       30.24F
WORLAND        FAIR      38  27  64 E6        30.24F WCI  33
SHERIDAN       FAIR      45  25  45 SW7       30.16R
BUFFALO        FAIR      45  26  47 S3        30.19F
GILLETTE       FAIR      40  30  67 W10       30.17F WCI  33
HULETT         FAIR      43  30  61 SW6       30.15S
NEWCASTLE      FAIR      39  28  65 N8        30.17S WCI  34

$$
WYZ014>020-022>026-101>103-100200-
CENTRAL WYOMING

CITY           SKY/WX    TMP DP  RH WIND       PRES   REMARKS
BIG PINEY      FAIR      37  26  64 CALM      30.41S
PINEDALE       MOCLDY    37  23  56 CALM      30.41R
DUBOIS         FAIR      41  12  30 NW17      30.36S
LANDER         FAIR      33  20  58 NW7       30.30S WCI  27
RIVERTON       FAIR      32  21  64 NE5       30.32S WCI  27
CASPER         FAIR      37  24  59 SW20G28   30.28S WCI  27
DOUGLAS        FAIR      38  27  64 N10         N/A  WCI  31

$$
WYZ021-027>030-104>119-100200-
SOUTHERN WYOMING

CITY           SKY/WX    TMP DP  RH WIND       PRES   REMARKS
EVANSTON       FAIR      33  23  66 CALM      30.46F
KEMMERER       FAIR      32  23  69 NW7       30.44F WCI  26
FORT BRIDGER   CLEAR     39  25  56 W15       30.46F WCI  31
ROCK SPRINGS   FAIR      37  25  61 SW15      30.41S WCI  28
DIXON          FAIR      17  12  82 NE5       30.49R WCI  10
RAWLINS        FAIR      35  21  56 SW23G29   30.38F WCI  23
SARATOGA       FAIR      27  21  80 S13       30.42S WCI  16
LARAMIE        FAIR      27  23  85 SE8       30.33S WCI  19
CHEYENNE       FAIR      43  21  41 W17       30.26S
TORRINGTON     FAIR      43  28  55 W12       30.20R
PINE BLUFFS    FAIR      37  28  70 W16       30.23F WCI  28

$$




USA.gov is the U.S. government's official web portal to all federal, state and local government web resources and services.